Terminal Aerodrome Forecast
Issued by NWS Jackson, MS

Home | Current Version | Previous Version | Text Only | Print | Product List | Glossary On
Versions: 1 2 3 4 5 6 7 8 9 10 11 12 13 14 15 16 17 18
000
FTUS44 KJAN 201800 AAA
TAFGLH
TAF AMD
KGLH 201806Z 2018/2118 25007KT P6SM FEW040
     FM210000 20003KT P6SM SKC=

USA.gov is the U.S. government's official web portal to all federal, state and local government web resources and services.